Home > Weather > Washim > Past weeks

Flag for India Weather for the Past 2 Weeks in Washim, Maharashtra, India

Now
82 °F

Haze.


Feels Like: 83 °F
Forecast: 79 / 102 °F
Wind: 7 mph from Southeast

Location: Nagpur Sonegaon

Current Time: May 4, 2016 at 7:53:49 AM

Latest Report: May 4, 2016 at 7:00 AM


Visibility: 3 mi

Pressure: 29.83 "Hg (28.04 "Hg at 546m altitude)

Humidity: 48%

Dew Point: 61 °F

Location of WashimLocation

Historic Weather in Washim — Graph

°F

Washim Temperature Yesterday

Maximum temperature yesterday: 109 °F (at 4:00 PM)
Minimum temperature yesterday: 81 °F (at 3:00 AM)
Average temperature yesterday: 95 °F

High & Low Weather Summary for the Past Weeks

 TemperatureHumidityPressure
High113 °F (Apr 21, 3:00 PM)54% (May 4, 6:00 AM)29.89 "Hg (May 4, 6:00 AM)
Low79 °F (May 4, 6:00 AM)9% (May 1, 2:00 PM)29.59 "Hg (Apr 23, 4:30 PM)
Average98 °F22%29.74 "Hg
* Reported Apr 19 6:30 AM — May 4 6:30 AM, Washim, Weather by CustomWeather, © 2016

Note: Actual official high and low records may vary slightly from our data, if they occured in-between our weather recording intervals... More about our weather records

Advertising

Washim Weather History for the Previous 24 Hours

Scroll right to see more
 ConditionsComfort  
Time TempWeatherWind HumidityBarometerVisibility
6:30 AM
Wed, May 4
82 °FHaze.6 mph51%29.83 "Hg3 mi
6:00 AM79 °FHaze.5 mph54%29.83 "Hg2 mi
5:30 AM81 °FHaze.2 mph51%29.80 "Hg2 mi
5:00 AM81 °FHaze.2 mph51%29.77 "Hg2 mi
4:30 AM82 °FHaze.2 mph25%29.77 "Hg2 mi
4:00 AM82 °FHaze.2 mph48%29.77 "Hg2 mi
3:00 AM82 °FHaze.5 mph48%29.74 "Hg2 mi
2:30 AM82 °FHaze.3 mph48%29.74 "Hg2 mi
2:00 AM84 °FHaze.6 mph45%29.74 "Hg2 mi
1:30 AM84 °FHaze.7 mph45%29.74 "Hg2 mi
1:00 AM86 °FHaze.6 mph43%29.77 "Hg2 mi
12:30 AM86 °FHaze.9 mph43%29.77 "Hg2 mi
12:00 AM86 °FHaze.8 mph43%29.77 "Hg2 mi
11:30 PM
Tue, May 3
88 °FHaze.8 mph40%29.80 "Hg2 mi
11:00 PM88 °FHaze.8 mph38%29.80 "Hg2 mi
10:30 PM90 °FHaze.9 mph38%29.80 "Hg2 mi
10:00 PM90 °FHaze.9 mph38%29.80 "Hg2 mi
9:30 PM91 °FHaze.12 mph36%29.77 "Hg2 mi
9:00 PM95 °FHaze.7 mph32%29.74 "Hg3 mi
8:30 PM97 °FHaze.9 mph27%29.74 "Hg3 mi
8:00 PM97 °FHaze.No wind18%29.71 "Hg3 mi
7:30 PM100 °FHaze.5 mph17%29.71 "Hg3 mi
7:00 PM104 °FHaze.2 mph14%29.68 "Hg3 mi
6:30 PM106 °FHaze.3 mph13%29.65 "Hg3 mi
5:30 PM108 °FPassing clouds.6 mph13%29.65 "Hg4 mi
4:30 PM109 °FPassing clouds.2 mph15%29.65 "Hg4 mi
4:00 PM109 °FPassing clouds.3 mph15%29.65 "Hg4 mi
3:30 PM108 °FExtremely hot.3 mph16%29.68 "Hg4 mi
3:00 PM108 °FScattered clouds.2 mph17%29.71 "Hg4 mi
2:30 PM106 °FScattered clouds.6 mph18%29.71 "Hg4 mi
2:00 PM106 °FScattered clouds.6 mph18%29.74 "Hg4 mi
1:30 PM106 °FScattered clouds.6 mph19%29.77 "Hg4 mi
1:00 PM106 °FScattered clouds.7 mph19%29.77 "Hg4 mi
12:30 PM104 °FScattered clouds.6 mph20%29.80 "Hg4 mi
12:00 PM102 °FScattered clouds.7 mph21%29.80 "Hg4 mi
11:30 AM102 °FScattered clouds.7 mph21%29.83 "Hg4 mi
11:00 AM100 °FScattered clouds.5 mph22%29.83 "Hg4 mi
10:30 AM99 °FBroken clouds.6 mph27%29.83 "Hg4 mi
10:00 AM97 °FBroken clouds.5 mph27%29.83 "Hg4 mi
9:30 AM99 °FBroken clouds.6 mph25%29.83 "Hg4 mi
9:00 AM97 °FScattered clouds.6 mph25%29.83 "Hg4 mi
8:30 AM95 °FScattered clouds.9 mph26%29.83 "Hg4 mi
8:00 AM91 °FScattered clouds.6 mph30%29.80 "Hg2 mi
7:00 AM86 °FPartly sunny.5 mph40%29.80 "Hg2 mi
Weather by CustomWeather, © 2016

See weather overviewHow to use our weather pages